Weather reports worldwide

Advertisment
Ouessant, France (7100): temperature & dewpoint: 20.10.2020 11:00:00 - 26.10.2020 11:00:00 (CET)Ouessant, France (7100): wind speed & gusts: 20.10.2020 11:00:00 - 26.10.2020 11:00:00 (CET)Ouessant, France (7100): wind direction: 20.10.2020 11:00:00 - 26.10.2020 11:00:00 (CET)Ouessant, France (7100): reduced air pressure: 20.10.2020 11:00:00 - 26.10.2020 11:00:00 (CET)Ouessant, France (7100): visibility: 20.10.2020 11:00:00 - 26.10.2020 11:00:00 (CET)Ouessant, France (7100): precipitation: 20.10.2020 11:00:00 - 26.10.2020 11:00:00 (CET)
Date & Time tt [°C] td [°C] ff [km/h] ff [kn] fx [km/h] fx [kn] dd ppp [hPa] vv [km] rr [mm]
26.10.2020 11:00:00 13,0 8,9 45 24 64 35 WNW 1005,7 - 0,0
26.10.2020 10:00:00 12,2 8,7 46 25 62 33 WNW 1005,2 10 0,0
26.10.2020 09:00:00 10,7 8,3 48 26 66 36 W 1004,9 - 0,0
26.10.2020 08:00:00 11,2 7,3 51 28 70 38 WNW 1003,9 - 0,0
26.10.2020 07:00:00 10,6 8,2 37 20 64 34 W 1003,4 - 0,4
26.10.2020 06:00:00 11,0 6,9 47 26 72 39 WNW 1002,8 - 0,0
26.10.2020 05:00:00 11,0 8,2 48 26 68 37 W 1002,5 - 0,0
26.10.2020 04:00:00 11,0 7,3 49 27 66 36 W 1002,2 18 0,0
26.10.2020 03:00:00 11,5 7,8 44 24 64 34 W 1002,2 - 0,0
26.10.2020 02:00:00 9,9 7,1 29 15 59 32 W 1002,2 - 0,0
26.10.2020 01:00:00 10,8 7,8 43 23 58 31 W 1001,9 18 0,0
26.10.2020 00:00:00 10,7 7,0 43 23 55 30 W 1001,9 - 0,0
25.10.2020 23:00:00 10,0 6,2 38 21 50 27 W 1001,6 - 0,0
25.10.2020 22:00:00 10,6 6,9 36 19 56 30 W 1001,2 18 0,0
25.10.2020 21:00:00 10,4 6,7 36 20 53 29 W 1000,6 - 0,0
25.10.2020 20:00:00 10,3 6,8 40 22 59 32 W 1000,0 - 0,0
25.10.2020 19:00:00 9,6 6,7 39 21 63 34 W 999,3 20 0,0
25.10.2020 18:00:00 9,5 7,3 32 17 69 37 W 998,7 - 2,2
25.10.2020 17:00:00 11,9 8,0 41 22 61 33 SW 998,5 - 0,0
25.10.2020 16:00:00 12,3 6,8 41 22 - - WSW 997,8 20 0,0
25.10.2020 15:00:00 12,6 7,9 31 17 51 27 WSW 998,0 - 0,0
25.10.2020 14:00:00 13,6 8,8 33 18 51 27 WSW 998,1 - 0,0
25.10.2020 13:00:00 12,3 9,8 19 10 46 25 WSW 998,4 - 0,6
25.10.2020 12:00:00 12,6 9,1 26 14 61 33 WSW 998,5 - 0,6
25.10.2020 11:00:00 12,7 7,8 34 18 57 31 WSW 998,2 - 0,0
25.10.2020 10:00:00 12,7 7,8 39 21 61 33 SW 998,5 15 0,0
25.10.2020 09:00:00 11,8 7,9 34 18 56 30 SW 998,2 - 0,0
25.10.2020 08:00:00 11,6 7,1 36 19 53 28 WSW 998,0 - 0,0
25.10.2020 07:00:00 11,2 6,5 36 20 52 28 WSW 998,0 20 0,0
25.10.2020 06:00:00 10,7 7,4 34 19 69 38 SW 998,2 - 0,0
25.10.2020 05:00:00 11,5 6,4 39 21 65 35 SW 998,0 - 0,0
25.10.2020 04:00:00 11,3 7,2 40 21 60 32 SW 998,3 20 0,0
25.10.2020 03:00:00 11,5 6,8 40 22 60 32 WSW 998,7 - 0,0
25.10.2020 02:00:00 12,3 8,6 35 19 49 27 WSW 999,2 - 0,0
25.10.2020 01:00:00 - - - - - - - - - -
25.10.2020 00:00:00 11,8 8,3 34 18 54 29 SW 1000,0 - 0,0
24.10.2020 23:00:00 11,9 9,3 28 15 50 27 WSW 999,8 - 0,0
24.10.2020 22:00:00 11,8 9,0 38 21 62 33 WSW 999,8 20 0,0
24.10.2020 21:00:00 11,9 10,8 40 22 58 31 SW 999,5 - 0,0
24.10.2020 20:00:00 11,8 11,2 29 16 48 26 SW 999,3 - 0,6
24.10.2020 19:00:00 11,6 11,0 26 14 76 41 WSW 999,3 8 1,8
24.10.2020 18:00:00 13,3 12,8 51 28 76 41 SSW 998,3 - 0,0
24.10.2020 17:00:00 13,5 13,2 45 24 68 37 SSW 998,8 - 1,4
24.10.2020 16:00:00 13,5 13,0 46 25 64 35 SSW 999,8 - 0,6
24.10.2020 15:00:00 13,4 12,6 48 26 86 46 SSW 1000,1 - 0,6
24.10.2020 14:00:00 14,5 14,0 64 35 84 45 SSW 1000,9 - 1,0
24.10.2020 13:00:00 14,7 13,4 61 33 83 45 SSW 1002,1 - 0,0
24.10.2020 12:00:00 14,6 13,5 54 29 78 42 SSW 1003,6 - 0,0
24.10.2020 11:00:00 14,4 13,6 54 29 74 40 SSW 1004,2 - 0,0
24.10.2020 10:00:00 14,4 13,8 49 27 82 44 SW 1005,0 9 0,0
24.10.2020 09:00:00 14,2 13,9 54 29 68 37 SSW 1005,6 - 0,0
24.10.2020 08:00:00 13,7 12,9 42 23 61 33 SSW 1006,3 - 0,0
24.10.2020 07:00:00 13,5 12,6 40 22 62 33 SSW 1006,9 20 0,0
24.10.2020 06:00:00 13,3 12,5 43 23 55 30 SSW 1007,6 - 0,2
24.10.2020 05:00:00 12,7 12,1 36 19 54 29 SSW 1008,5 - 0,0
24.10.2020 04:00:00 12,9 12,6 36 19 63 34 SSW 1009,5 20 0,0
24.10.2020 03:00:00 13,2 12,7 41 22 56 30 S 1009,8 - 0,0
24.10.2020 02:00:00 12,8 12,2 33 18 45 24 S 1010,5 - 0,0
24.10.2020 01:00:00 12,5 11,9 31 17 39 21 S 1011,1 20 0,0
24.10.2020 00:00:00 12,0 11,2 24 13 35 19 SSW 1012,3 - 0,0
23.10.2020 23:00:00 11,7 10,9 22 12 34 18 SW 1012,6 - 0,0
23.10.2020 22:00:00 11,6 11,1 20 11 29 15 SW 1012,6 20 0,0
23.10.2020 21:00:00 11,7 11,4 16 8 23 12 SW 1012,6 - 0,0
23.10.2020 20:00:00 11,7 11,2 16 9 21 11 SW 1012,9 - 0,0
23.10.2020 19:00:00 11,7 11,1 15 8 25 13 SW 1012,7 20 0,0
23.10.2020 18:00:00 12,7 11,8 18 10 26 14 SW 1012,3 - 0,0
23.10.2020 17:00:00 13,1 12,3 13 7 23 13 SW 1012,0 - 0,0
23.10.2020 16:00:00 13,1 12,5 17 9 31 17 W 1012,0 18 0,0
23.10.2020 15:00:00 13,5 13,0 21 11 30 16 W 1011,8 - 0,6
23.10.2020 14:00:00 12,4 11,6 20 11 53 29 W 1011,6 - 0,2
23.10.2020 13:00:00 14,2 11,5 29 16 47 26 SW 1011,3 18 0,0
23.10.2020 12:00:00 13,7 10,7 32 18 46 25 SW 1011,5 - 0,0
23.10.2020 11:00:00 13,0 9,8 28 15 40 22 SW 1011,1 - 0,0
23.10.2020 10:00:00 12,0 9,9 29 16 40 22 W 1011,2 20 0,0
23.10.2020 09:00:00 11,6 10,5 19 11 39 21 WSW 1010,4 - 0,0
23.10.2020 08:00:00 11,5 11,3 26 14 39 21 W 1010,1 - 0,0
23.10.2020 07:00:00 11,8 11,8 31 17 43 23 WNW 1009,2 20 0,0
23.10.2020 06:00:00 12,6 12,6 19 10 31 17 WSW 1009,0 - 0,2
23.10.2020 05:00:00 12,7 12,7 23 12 32 18 SSW 1008,7 - 0,0
23.10.2020 04:00:00 13,0 13,0 24 13 36 19 SSW 1009,0 20 0,0
23.10.2020 03:00:00 12,9 12,9 26 14 38 20 SSW 1009,3 - 0,0
23.10.2020 02:00:00 13,1 13,1 27 15 35 19 S 1009,6 - 0,2
23.10.2020 01:00:00 13,0 13,0 21 12 29 16 SSW 1010,0 20 0,0
23.10.2020 00:00:00 12,8 12,8 24 13 32 17 SSW 1010,1 - 0,0
22.10.2020 23:00:00 12,7 12,7 22 12 29 16 SSW 1010,3 - 0,2
22.10.2020 22:00:00 12,7 12,5 22 12 32 18 SSW 1010,4 20 0,0
22.10.2020 21:00:00 12,9 12,7 26 14 39 21 SSW 1010,2 - 0,0
22.10.2020 20:00:00 13,2 13,0 29 15 40 21 S 1010,2 - 0,0
22.10.2020 19:00:00 13,3 13,1 28 15 38 21 S 1009,9 20 0,0
22.10.2020 18:00:00 13,6 13,1 25 13 40 22 S 1009,7 - 0,0
22.10.2020 17:00:00 14,2 13,2 27 15 38 21 S 1009,5 - 0,0
22.10.2020 16:00:00 14,6 13,3 22 12 39 21 S 1009,5 - 0,0
22.10.2020 15:00:00 15,0 13,7 19 10 36 19 S 1009,4 - 0,0
22.10.2020 14:00:00 15,4 13,9 14 8 31 17 SSE 1009,5 - 0,0
22.10.2020 13:00:00 15,4 14,4 19 10 29 16 S 1009,9 20 0,0
22.10.2020 12:00:00 14,8 14,6 17 9 29 15 S 1010,1 - 0,0
22.10.2020 11:00:00 14,7 14,7 19 11 27 15 S 1009,9 - 0,0
22.10.2020 10:00:00 14,4 14,4 15 8 24 13 S 1009,5 4,5 0,0
22.10.2020 09:00:00 12,8 12,8 16 9 26 14 S 1008,9 - 0,0
22.10.2020 08:00:00 12,5 12,5 17 9 24 13 S 1008,2 - 0,0
22.10.2020 07:00:00 12,5 12,5 20 11 25 13 S 1007,7 20 0,0
22.10.2020 06:00:00 12,4 12,4 19 10 26 14 S 1007,4 - 0,2
22.10.2020 05:00:00 12,2 12,2 20 11 28 15 S 1007,1 - 0,0
22.10.2020 04:00:00 12,5 12,5 20 11 27 15 S 1007,2 20 0,0
22.10.2020 03:00:00 12,4 12,4 18 10 24 13 S 1007,2 - 0,2
22.10.2020 02:00:00 12,2 12,0 17 9 22 12 S 1007,1 - 0,0
22.10.2020 01:00:00 12,1 11,9 18 10 27 15 SSW 1006,8 - 0,0
22.10.2020 00:00:00 12,4 12,1 21 11 32 17 SW 1006,4 - 0,0
21.10.2020 23:00:00 12,5 12,2 23 12 30 16 SSW 1006,1 - 0,2
21.10.2020 22:00:00 12,7 12,1 23 12 35 19 SSW 1005,5 20 0,0
21.10.2020 21:00:00 12,7 12,1 26 14 35 19 SSW 1005,0 - 0,0
21.10.2020 20:00:00 12,6 11,8 28 15 36 19 SSW 1004,5 - 0,0
21.10.2020 19:00:00 12,7 11,6 27 15 41 22 SSW 1003,7 20 0,0
21.10.2020 18:00:00 13,1 11,7 28 15 41 22 SSW 1003,0 - 0,0
21.10.2020 17:00:00 14,2 11,9 31 17 49 26 SSW 1002,2 - 0,0
21.10.2020 16:00:00 15,0 12,3 33 18 48 26 SSW 1001,4 20 0,0
21.10.2020 15:00:00 15,5 12,6 32 18 48 26 SW 1000,6 - 0,0
21.10.2020 14:00:00 15,1 13,5 31 17 54 29 WSW 999,5 - 0,0
21.10.2020 13:00:00 15,1 14,6 34 19 52 28 WSW 998,2 15 0,0
21.10.2020 12:00:00 14,6 14,6 29 15 44 24 SW 997,4 - 0,0
21.10.2020 11:00:00 13,7 13,7 21 12 35 19 WSW 996,5 - 0,6
21.10.2020 10:00:00 13,4 13,4 29 16 49 26 WSW 995,2 4,0 4,4
21.10.2020 09:00:00 13,3 13,3 21 12 27 15 WSW 993,8 - 1,2
21.10.2020 08:00:00 13,4 13,4 8 5 10 6 W 992,4 - 0,4
21.10.2020 07:00:00 14,0 14,0 3 2 8 4 W 991,2 10 1,7
21.10.2020 06:00:00 14,1 14,1 3 2 7 4 SW 991,0 - 2,8
21.10.2020 05:00:00 14,1 14,1 5 3 14 7 ESE 990,8 - 1,4
21.10.2020 04:00:00 14,2 14,0 9 5 25 13 SE 991,2 0,9 1,0
21.10.2020 03:00:00 14,2 13,9 16 9 31 17 SE 991,9 - 0,0
21.10.2020 02:00:00 14,3 13,8 28 15 40 21 SE 992,7 - 0,0
21.10.2020 01:00:00 14,3 13,8 27 15 44 24 SE 993,4 - 0,0
21.10.2020 00:00:00 14,1 13,6 34 18 50 27 SE 993,9 - 0,0
20.10.2020 23:00:00 14,2 13,6 40 21 54 29 SE 994,7 - 0,0
20.10.2020 22:00:00 14,1 13,0 36 19 48 26 SE 995,1 15 0,0
20.10.2020 21:00:00 14,2 12,2 26 14 50 27 SSE 995,3 - 0,0
20.10.2020 20:00:00 14,1 12,5 24 13 53 29 SSE 996,1 - 0,0
20.10.2020 19:00:00 14,2 12,4 29 16 53 29 SSE 996,3 15 0,0
20.10.2020 18:00:00 14,3 12,5 38 20 63 34 S 996,4 - 0,0
20.10.2020 17:00:00 14,5 13,0 43 23 71 38 S 997,0 - 0,0
20.10.2020 16:00:00 14,6 13,1 41 22 67 36 S 997,7 - 0,0
20.10.2020 15:00:00 15,3 13,3 45 24 - - S 997,9 - 0,0
20.10.2020 14:00:00 15,0 13,5 43 23 64 35 S 998,5 - 0,0
20.10.2020 13:00:00 15,0 13,7 40 21 68 37 S 999,0 6 0,0
20.10.2020 12:00:00 15,9 14,8 41 22 62 34 S 999,1 - 0,0
20.10.2020 11:00:00 14,5 13,9 40 22 63 34 S 999,2 - 0,0

tt = temperature
td = dewpoint
ff = wind speed
fx = gusts
dd = wind direction
ppp = reduced air pressure
vv = visibility
rr = precipitation

Next stations